軌道要素
Epoch 2020 Nov. 7.0 TT = JDT 2459160.5
T 2020 Oct. 26.18691 TT Rudenko
q 1.7032656 (2000.0) P Q
n 0.13342796 Peri. 186.43646 +0.99994358 +0.00501401
a 3.7929008 Node 173.25497 -0.00171094 +0.94610259
e 0.5509333 Incl. 4.57327 -0.01048396 +0.32382826
P 7.39
From 321 observations 1986 Dec. 2-2020 Sept. 21, mean residual 0".8.
|